Regional Weather Roundup
Issued by NWS

Home | Current Version | Previous Version | Text Only | Print | Product List | Glossary On
Versions: 1 2 3 4 5 6 7 8 9 10 11 12 13 14 15 16 17 18 19 20 21 22 23 24 25 26 27 28 29 30 31 32 33 34 35 36 37 38 39 40 41 42 43 44 45 46 47 48 49 50
000
ASUS43 KTOP 231459
RWRKS

WEATHER ROUNDUP FOR KANSAS
NATIONAL WEATHER SERVICE GOODLAND KS
1000 AM CDT TUE AUG 23 2016

NOTE:  "FAIR" INDICATES FEW OR NO CLOUDS BELOW 12,000 FEET WITH NO
SIGNIFICANT WEATHER AND/OR OBSTRUCTIONS TO VISIBILITY.

KSZ001>006-013>018-027>032-041>047-231600-
NORTHWEST KANSAS

CITY           SKY/WX    TMP DP  RH WIND       PRES   REMARKS
GOODLAND       SUNNY     70  52  52 NW12      29.89S
HAYS           SUNNY     81  64  57 S26G33    29.86S
HILL CITY      SUNNY     79  66  64 SW13G22   29.85S
RUSSELL        CLOUDY    80  69  69 S26G35    29.87S
$$

KSZ061>065-074>080-084>089-231600-
SOUTHWEST KANSAS

CITY           SKY/WX    TMP DP  RH WIND       PRES   REMARKS
DODGE CITY     MOSUNNY   79  66  64 S22G29    29.93F
ELKHART          N/A     74  56  53 SW12        N/A
GARDEN CITY    SUNNY     77  62  59 S21G28    29.91S
GREAT BEND     MOSUNNY   79  64  61 S26       29.91F
LIBERAL        SUNNY     79  64  61 SW23G29   29.96S
$$

KSZ066>073-081>083-090>101-231600-
SOUTHEAST KANSAS

CITY           SKY/WX    TMP DP  RH WIND       PRES   REMARKS
CHANUTE        CLOUDY    77  72  84 S14       30.06F
COFFEYVILLE    CLOUDY    79  73  82 S13       30.08R
HUTCHINSON     CLOUDY    79  71  76 S17G25    29.97S
NEWTON         CLOUDY    78  72  81 S23       29.99F
PARSONS        CLOUDY    77  72  84 S9G17     30.09S
WICHITA INTL   PTSUNNY   78  72  81 S18       29.98F
WICHITA JABRA  MOSUNNY   78  72  81 S20G26    29.99F
WICHITA MCCONL PTSUNNY   79  72  78 S18G24    30.00S
WINFIELD       MOSUNNY   79  74  84 S14       30.03F
$$

KSZ007>012-019>026-033>040-048>060-102>105-231600-
NORTHEAST KANSAS

CITY           SKY/WX    TMP DP  RH WIND       PRES   REMARKS
CONCORDIA      PTSUNNY   77  69  76 S16G28    29.90S
EMPORIA        CLOUDY    77  72  84 S17G23    30.01F
LAWRENCE       PTSUNNY   77  71  82 S13       30.02F
MANHATTAN      CLOUDY    79  72  79 S17G26    29.95S
OLATHE IND     CLOUDY    75  70  84 S14       30.06S
OLATHE EXE     CLOUDY    73  70  90 S12       30.06F
SALINA         CLOUDY    82  71  69 S22G35    29.92F
TOPEKA BILLARD CLOUDY    77  71  82 S14G22    30.00S
TOPEKA FORBES  CLOUDY    78  71  79 S15G21    30.01F
$$




USA.gov is the U.S. government's official web portal to all federal, state and local government web resources and services.